User: anonymous   Login
Location: Claremont
(33.9858°S, 18.4575°E)
Time: 04:29:09
(UTC+00:00)
Language:

Cosmos 1603 - Orbit

View from above orbital plane
View from above orbital plane
View from above satellite
View from above satellite

Ground track
Ground track

The orbit data is extracted from the following two-line orbital elements,

1 15333U 84106A   21125.36693660 -.00000306  00000-0 -13539-3 0  9999
2 15333  71.0281   2.5822 0020934 213.7546 146.2245 14.14114171888509
Epoch (UTC): 05 May 2021 08:48:23
Eccentricity: 0.0020934
inclination: 71.0281°
perigee height: 830 km
apogee height: 860 km
right ascension of ascending node: 2.5822°
argument of perigee: 213.7546°
revolutions per day: 14.14114171
mean anomaly at epoch: 146.2245°
orbit number at epoch: 88850

The dashed part of the orbit path shows where the satellite is in the earth's shadow,  

DLR